Location: Lecco
(45.8566°N, 9.3977°E)
Time: 13:18:43
(UTC+02:00)

Vanguard 2 Rocket - Pass Details

Date: 16 August 2020
Orbit: 554 x 3326 km, 32.9° (Epoch: 24 September)

Event Time Altitude Azimuth Distance (km) Brightness Sun altitude
Rises 19:15:44 0° 245° (WSW) 3,189 10.8 11.5°
Reaches altitude 10° 19:18:03 10° 233° (SW) 2,483 9.9 11.1°
Maximum altitude 19:23:05 29° 174° (S) 1,947 8.6 10.2°
Drops below altitude 10° 19:30:51 10° 119° (ESE) 3,918 9.6 8.9°
Sets 19:35:34 0° 111° (ESE) 5,429 10.2 8.0°
